Location: Bacharowice
(49.9333°N, 19.5833°E)
Time: 01:09:21
(UTC+00:00)

USA 305 - Pass Details

Date: 23 September 2021
Orbit: 547 x 588 km, 54.0° (Epoch: 03 October)

Event Time Altitude Azimuth Distance (km) Brightness Sun altitude
Rises 17:08:35 0° 273° (W) 2,733 9.2 -5.8°
Reaches altitude 10° 17:10:52 10° 279° (W) 1,844 7.4 -6.2°
Maximum altitude 17:14:56 49° 355° (N) 735 3.6 -6.9°
Drops below altitude 10° 17:19:05 10° 71° (ENE) 1,871 5.0 -7.5°
Enters shadow 17:19:40 - 73° (ENE) 2,097 5.2 -7.6°
